GFSMW_250_spd_327.txt.gz
Wind_Speed
95 94 88 83 80 74 69 66 74 72 66 63 69 66 60 58 49 47 53 35 50 50 53 50 47 48 47 44 42 42 42 43 40 38 32 31 35 35 33 31 26 28 29
89 95 94 88 85 80 76 71 78 78 72 70 73 73 66 62 56 60 48 56 60 53 53 55 56 53 51 51 48 45 40 38 37 35 31 38 37 39 33 28 30 30 32
87 86 94 93 90 86 83 78 77 85 82 77 74 75 71 64 59 58 57 49 64 55 55 54 52 53 53 52 47 44 41 39 37 35 36 32 30 29 30 31 32 32 33
89 87 89 95 94 92 91 86 81 83 85 84 77 74 77 72 71 69 61 65 68 67 61 57 55 50 50 49 48 46 45 42 37 34 31 32 31 32 33 32 29 30 30
91 94 90 92 98 98 96 92 90 85 88 84 82 82 78 79 76 68 60 59 64 68 68 59 57 54 52 50 46 44 41 39 38 36 36 35 35 36 36 35 32 34 34
101 98 96 95 99 104 103 99 96 89 88 84 82 79 81 77 77 74 66 58 63 68 68 61 59 57 55 51 48 42 40 38 39 38 39 38 36 37 36 36 36 38 36
101 102 109 104 100 103 104 103 99 94 91 85 86 82 81 81 78 65 64 62 65 65 65 66 63 60 56 52 48 44 42 42 42 41 42 41 42 41 39 41 40 38 40
98 94 97 98 99 103 105 106 103 99 92 91 85 86 83 84 86 82 69 66 66 68 67 64 65 63 58 52 50 49 45 43 45 47 46 45 43 43 39 37 39 42 42
104 97 97 95 95 97 103 105 105 102 94 95 91 83 84 82 82 81 81 74 72 65 66 67 61 61 58 55 51 50 52 51 50 49 47 47 43 42 44 47 47 46 44
106 103 101 99 98 96 98 103 107 106 99 95 96 91 78 85 82 82 83 78 77 70 64 59 62 57 55 52 51 50 47 51 52 51 49 48 47 47 52 53 53 53 52
108 108 105 103 103 100 99 98 103 106 104 95 93 97 85 75 86 84 84 80 83 72 71 62 59 58 55 52 51 50 50 47 46 47 47 49 51 53 56 56 57 58 56
108 109 108 103 103 101 98 101 100 105 106 103 96 90 95 84 83 88 88 86 88 80 71 62 60 63 56 53 52 49 48 50 47 47 48 53 52 53 54 58 57 57 58
107 106 106 103 103 104 103 102 100 105 109 105 104 96 92 88 86 80 87 88 86 84 78 75 66 62 62 60 58 57 54 52 54 54 56 60 57 57 54 57 59 60 63
109 106 105 101 104 106 104 105 102 98 106 106 104 100 94 88 87 77 79 84 92 87 81 72 72 70 67 66 61 59 63 64 61 62 63 59 58 59 63 63 63 63 65
104 108 106 100 102 105 106 106 103 102 100 104 104 100 97 93 77 84 78 82 81 88 88 80 78 73 72 69 68 66 67 66 64 64 64 65 66 66 64 63 65 65 68
94 104 109 103 99 106 105 105 106 106 106 99 103 103 100 99 92 81 79 76 82 80 79 81 82 77 75 73 73 73 74 71 69 71 71 68 68 67 66 66 67 69 68
90 99 110 107 103 106 107 104 108 109 105 106 101 98 99 101 99 91 82 81 78 76 78 74 72 73 72 74 74 76 70 73 72 76 78 78 77 75 72 70 67 65 64
91 96 103 107 106 107 109 108 104 108 106 103 102 96 91 106 103 101 91 84 81 76 72 70 67 68 68 71 71 72 73 75 74 79 80 81 80 75 73 72 70 70 70
88 94 100 103 107 106 106 107 107 104 108 107 104 106 108 95 99 99 96 92 85 79 74 70 70 68 61 64 72 73 70 66 68 73 74 77 77 79 80 78 76 75 75
86 91 93 103 101 106 108 107 106 107 107 111 113 116 114 110 101 98 97 97 93 85 80 79 73 74 70 72 72 73 73 68 68 58 67 71 75 80 82 86 81 80 82
79 85 91 96 103 104 107 108 107 106 106 110 109 107 105 113 108 104 102 100 101 98 90 84 82 79 79 73 75 82 79 81 81 84 82 81 79 79 81 83 79 76 74
76 82 89 92 96 100 104 107 105 106 106 108 109 107 103 107 111 108 107 103 104 105 100 93 88 88 84 85 89 80 83 83 86 89 90 88 86 87 90 86 83 82 83
75 80 86 95 96 99 100 105 113 106 108 105 107 108 108 104 108 110 108 105 106 107 107 99 93 91 92 90 91 89 92 92 95 92 91 90 90 91 92 91 89 92 93
73 71 83 86 92 101 100 101 100 101 102 97 107 109 110 111 106 110 112 111 105 110 112 109 105 99 99 98 94 92 92 90 90 90 98 99 95 95 95 95 95 96 94
76 66 68 84 89 96 100 98 104 105 110 112 102 108 109 108 112 108 107 110 116 115 111 114 114 114 113 106 103 100 101 98 97 88 88 90 93 91 90 90 90 84 84
85 85 81 77 87 96 99 101 104 106 112 107 105 102 107 108 109 113 109 111 110 109 116 117 116 118 118 119 117 111 106 105 106 107 106 100 96 93 89 91 92 96 99

GFSMW_250_spd_330.txt.gz
Wind_Speed
97 95 91 86 82 79 69 67 60 65 63 60 67 66 64 62 59 53 48 41 49 49 48 48 45 50 45 41 43 42 39 41 33 38 38 35 37 32 28 32 37 31 37
100 101 97 94 89 86 77 76 71 69 73 69 65 71 70 68 59 54 51 39 37 46 46 49 50 51 48 49 47 48 46 41 41 37 36 39 36 32 32 39 37 39 32
97 103 103 102 97 95 85 83 78 71 81 78 69 69 70 71 65 60 55 52 50 43 45 51 54 51 51 45 47 45 44 40 40 40 39 37 38 32 38 40 37 31 32
110 109 113 106 104 102 94 90 87 80 80 85 77 71 72 69 73 69 68 60 58 51 53 55 50 51 50 52 49 43 44 44 43 42 42 41 38 38 36 38 36 32 35
103 104 110 111 113 111 104 97 91 89 84 85 87 80 74 74 71 78 70 65 65 62 64 58 52 52 53 57 53 55 54 50 47 46 44 41 38 35 36 35 35 36 37
97 101 104 103 110 114 106 105 100 96 90 87 85 86 77 79 78 77 74 70 66 65 64 65 60 59 58 56 55 53 51 49 47 44 41 37 36 37 38 39 39 39 41
95 97 100 102 103 109 108 99 97 100 97 93 88 88 87 81 83 82 76 79 74 74 68 68 64 62 62 65 58 58 53 51 48 42 41 39 41 42 42 43 44 43 42
96 94 97 100 101 105 106 98 102 102 97 89 89 88 92 88 81 83 84 80 78 79 75 72 63 65 66 70 62 61 56 54 50 46 45 44 43 45 45 45 45 44 43
101 98 95 98 101 103 99 99 95 103 102 95 91 90 87 92 90 85 83 85 85 82 79 73 70 62 63 66 60 61 58 54 52 50 47 46 48 49 50 48 47 44 44
110 105 102 99 101 102 98 97 68 95 101 102 95 93 90 87 93 92 87 84 85 83 79 78 75 67 61 64 60 64 61 57 54 52 54 51 50 50 52 51 49 47 46
114 109 107 106 104 102 100 102 95 86 98 103 99 96 94 91 91 90 87 82 83 83 80 77 74 66 59 58 59 56 61 62 61 58 55 52 56 56 54 55 50 50 53
111 113 111 109 107 103 99 102 96 54 53 100 108 100 97 97 91 87 89 88 83 80 79 81 80 68 65 56 55 61 61 62 60 55 52 49 47 48 51 54 50 53 53
105 109 112 111 109 105 97 101 100 91 73 79 110 108 89 80 83 80 85 92 87 88 84 88 86 79 76 71 64 59 58 62 61 57 54 53 51 47 47 49 51 53 54
98 106 109 113 112 107 99 99 105 114 89 48 99 110 101 90 91 87 88 89 90 90 92 82 86 80 77 71 67 67 56 56 56 57 53 54 53 54 53 51 57 60 57
93 95 105 108 112 107 101 98 103 103 93 79 73 102 102 94 89 94 85 89 87 89 90 88 87 84 79 76 71 72 71 58 59 61 59 60 61 58 63 58 60 63 60
84 91 96 107 106 103 100 99 101 100 101 91 88 81 100 80 71 92 92 86 85 84 82 81 85 83 78 75 75 75 70 70 66 66 66 64 62 59 64 68 63 64 63
76 81 89 98 108 102 98 102 104 106 105 76 70 81 91 95 66 93 98 104 93 86 88 86 83 83 85 83 80 75 73 72 69 69 69 69 69 69 70 68 67 67 69
69 73 78 89 100 103 98 102 106 115 115 84 72 81 81 91 69 90 108 105 97 85 81 86 89 82 75 77 86 86 84 79 76 75 74 75 76 77 77 77 75 75 74
68 69 75 80 93 101 98 98 109 116 121 115 93 91 99 74 95 87 87 104 97 90 89 85 82 84 82 80 81 82 80 73 74 76 77 79 77 76 76 77 77 78 75
65 70 73 80 85 96 100 97 105 113 121 119 116 101 108 83 83 75 87 89 96 98 94 91 90 84 83 87 84 76 72 74 73 70 70 73 72 74 74 74 78 75 77
67 69 71 78 85 94 100 103 101 113 118 122 113 119 105 120 96 92 69 78 91 103 104 92 90 90 84 87 82 75 71 69 71 76 75 73 72 75 75 72 75 76 80
66 70 72 75 82 86 99 104 102 109 116 119 122 115 125 105 104 92 80 83 84 95 112 102 86 89 86 89 89 84 87 82 77 79 78 78 86 80 79 78 79 77 75
66 68 71 75 77 84 90 102 109 104 108 115 121 118 111 116 109 108 104 107 94 85 89 103 109 103 89 88 94 92 89 91 89 86 83 85 84 86 85 90 85 84 87
64 69 71 73 75 80 82 98 102 109 105 107 113 122 118 119 115 107 96 118 105 98 91 96 101 111 111 98 95 92 89 89 88 89 88 88 87 92 93 90 94 91 92
66 67 69 69 70 77 85 86 94 105 109 108 112 116 121 120 120 125 115 111 114 111 113 109 100 103 114 115 104 97 95 93 95 92 93 93 93 94 91 91 93 92 91
64 68 68 70 73 77 83 85 90 96 102 107 117 118 120 120 122 123 124 116 113 117 113 111 108 102 106 112 115 110 105 103 103 104 103 102 100 99 94 96 97 98 99

GFSMW_250_spd_333.txt.gz
Wind_Speed
93 98 98 93 90 89 83 77 76 74 69 66 68 68 67 63 61 61 50 56 55 54 51 50 44 42 42 42 43 37 28 31 26 25 28 28 33 35 32 32 32 31 31
95 97 103 101 95 89 82 79 79 78 75 70 72 71 70 68 63 62 61 44 52 56 60 54 40 41 47 44 40 42 37 33 33 33 33 35 33 35 33 35 39 32 35
96 99 100 104 102 93 86 84 82 80 78 75 74 73 72 71 69 67 65 57 63 61 58 58 59 47 47 47 43 42 41 37 38 39 40 38 39 34 34 38 41 34 37
95 100 103 105 107 95 89 86 84 82 80 76 74 73 75 76 79 74 70 62 53 54 52 56 48 46 44 46 46 46 49 47 48 45 45 40 35 36 38 38 39 37 39
98 98 103 105 109 100 93 89 87 85 81 76 74 73 67 78 80 82 80 76 70 57 54 50 45 48 36 42 48 44 50 49 44 40 36 36 38 39 43 41 43 40 40
98 96 100 104 107 104 98 97 87 89 85 79 77 78 68 72 81 85 86 80 80 72 54 50 53 47 38 50 50 50 53 49 44 40 42 42 43 46 45 42 41 39 43
103 97 98 102 106 106 103 100 93 81 80 83 79 81 77 72 74 84 84 82 76 70 70 62 59 48 52 60 57 50 54 41 50 47 44 47 48 44 44 41 42 43 43
105 98 97 101 107 105 108 104 97 68 66 87 88 84 89 78 71 77 86 85 81 76 72 68 65 63 58 57 56 55 52 51 52 49 51 52 47 46 45 44 46 47 47
105 101 97 99 104 105 109 107 106 99 78 89 97 90 89 89 75 74 80 85 85 80 78 78 67 70 70 66 61 58 58 52 51 52 54 55 54 51 50 49 50 50 49
104 105 99 99 104 105 105 112 113 113 84 76 88 96 96 91 93 85 78 88 87 87 79 80 74 66 72 75 63 60 61 59 60 58 55 61 61 57 56 56 54 52 52
101 108 104 102 103 104 102 111 116 118 118 86 85 95 101 97 92 94 92 83 89 89 87 83 79 75 76 74 73 66 62 59 60 61 60 62 65 63 62 62 60 56 55
95 108 108 105 104 104 101 106 119 122 117 113 99 93 99 99 96 92 90 89 85 92 91 86 84 83 81 82 76 71 69 67 61 63 61 62 64 68 66 63 64 60 61
91 102 110 109 107 105 103 102 111 119 122 116 113 97 88 94 97 94 93 91 90 86 92 92 91 87 85 85 79 75 73 71 69 61 60 64 65 66 69 69 68 60 55
85 94 107 110 110 108 104 99 103 112 116 111 110 98 85 87 89 97 88 92 93 92 86 85 89 90 89 85 78 77 76 75 72 62 58 59 62 65 64 65 66 62 56
79 89 98 110 111 109 107 102 97 103 110 106 106 98 94 71 82 91 92 88 88 93 89 89 90 90 89 87 85 82 78 75 77 73 72 68 68 66 62 61 65 66 62
74 83 91 101 112 112 112 105 97 97 105 101 96 93 96 65 61 80 81 93 89 88 93 85 86 89 90 88 88 89 84 81 83 80 76 75 73 74 63 64 66 67 64
71 78 84 95 105 113 112 109 101 96 102 101 95 86 81 76 70 72 61 90 90 86 86 89 87 87 90 92 91 90 89 88 87 86 78 78 76 75 73 70 67 67 67
66 70 78 86 96 105 112 109 104 99 101 107 98 83 85 80 68 64 76 79 93 87 87 80 80 85 85 85 90 97 94 91 85 84 85 85 83 78 77 78 74 71 68
64 67 71 79 87 93 101 104 103 102 104 106 108 101 87 86 81 73 71 89 93 67 71 88 88 92 95 93 91 93 93 93 94 89 88 86 83 82 82 81 77 75 76
61 61 64 71 76 82 91 100 102 104 108 110 121 115 95 76 74 59 57 78 85 68 70 81 80 87 98 98 94 93 94 94 91 93 95 91 88 86 85 84 87 85 82
57 60 62 65 69 76 85 94 104 104 110 113 121 128 111 97 75 61 61 81 78 94 45 63 78 78 86 94 96 93 94 94 91 88 88 89 89 93 93 89 90 88 88
54 58 60 63 66 72 80 89 95 99 112 119 118 128 131 116 90 80 79 96 78 63 74 56 73 92 85 92 96 90 91 99 103 101 99 96 88 84 87 90 91 90 93
50 53 56 60 66 70 77 82 91 98 104 117 119 122 125 121 116 102 89 99 91 84 79 69 85 84 73 72 89 96 95 88 96 98 101 104 103 97 91 91 93 93 92
47 50 53 58 64 69 74 79 88 94 103 112 122 122 121 116 106 111 111 110 106 99 88 85 79 72 61 69 61 95 99 102 89 88 93 95 97 97 96 92 93 90 91
47 48 52 59 64 69 72 81 88 94 104 111 121 121 118 117 115 117 116 110 120 112 88 92 82 72 79 85 90 72 83 95 101 97 93 94 96 96 94 93 92 93 91
46 46 50 56 64 70 74 80 85 93 102 108 112 123 120 127 118 118 119 119 116 112 103 94 92 95 94 92 95 89 79 87 100 108 105 100 91 94 99 101 99 99 101

GFSMW_250_spd_339.txt.gz
Wind_Speed
110 105 101 97 91 87 83 85 79 73 65 64 64 67 66 65 65 63 63 67 53 42 54 42 43 52 48 43 49 44 40 40 36 30 30 29 26 26 29 32 31 30 30
113 108 104 101 99 94 88 88 82 78 73 69 69 68 68 67 68 67 65 66 58 54 57 57 49 51 47 40 41 43 49 49 44 36 30 31 27 27 33 31 30 32 29
110 112 107 105 102 100 96 92 89 85 80 75 72 70 70 67 70 73 72 69 66 64 56 58 58 59 54 52 40 42 45 44 44 42 38 37 31 28 29 31 34 35 35
104 108 111 106 104 100 101 98 94 89 84 80 70 71 73 72 72 77 75 75 71 64 61 66 54 53 57 50 54 53 48 49 47 45 39 38 34 34 33 33 35 37 35
97 99 106 108 105 103 101 103 99 94 87 83 76 71 74 73 71 74 79 76 77 76 62 60 63 55 53 56 48 47 47 49 43 40 40 41 40 38 38 41 41 37 38
93 95 96 104 104 105 103 102 104 100 93 87 84 75 78 76 75 76 78 79 83 78 70 65 65 62 57 65 59 51 51 49 44 39 40 41 44 45 39 37 39 43 44
85 85 82 94 102 104 107 104 106 108 99 91 92 76 75 75 73 72 79 79 85 83 76 74 70 68 58 57 69 66 60 57 47 48 44 44 44 39 43 44 46 47 42
79 79 79 83 95 101 107 108 106 112 106 97 96 84 76 76 73 76 78 86 85 86 85 82 72 70 65 62 59 68 69 59 57 53 49 46 47 48 46 48 48 47 42
73 74 75 81 91 98 106 110 108 113 113 104 98 95 83 75 54 75 80 84 87 89 90 86 78 71 68 64 64 63 65 67 61 61 61 61 62 55 48 48 43 40 41
68 69 71 82 92 98 104 112 114 114 118 110 103 103 92 88 79 65 78 83 90 91 91 89 83 83 70 69 67 66 66 66 64 60 59 61 59 53 50 52 44 47 51
67 67 69 82 92 99 103 112 116 116 118 116 109 106 103 90 81 72 76 84 87 93 93 90 90 86 83 68 71 66 64 60 56 59 62 60 63 57 58 58 46 59 55
66 70 74 85 92 99 103 112 118 118 120 119 115 108 108 100 92 65 71 82 84 92 94 93 96 93 92 85 70 71 70 65 62 63 60 59 54 64 62 55 54 56 55
65 70 77 87 93 100 103 111 120 121 121 120 120 114 112 109 103 88 79 86 82 82 94 98 92 99 96 95 80 73 75 71 65 63 62 64 63 67 64 64 58 57 60
63 69 77 88 95 101 103 108 120 122 121 120 124 122 117 118 112 96 85 93 92 86 80 94 102 97 95 96 93 83 79 69 70 71 67 68 62 64 67 70 63 65 67
60 63 72 84 93 101 101 108 118 123 124 122 125 127 123 122 120 113 104 100 95 89 86 85 97 94 85 91 91 88 92 82 77 73 68 69 63 70 71 68 71 72 74
55 58 67 77 87 94 99 105 114 124 125 125 127 130 132 128 123 121 115 108 104 99 93 87 89 100 91 69 96 87 88 95 85 85 81 73 77 80 79 78 81 80 70
53 55 62 72 81 88 95 102 109 123 129 130 129 132 133 134 129 124 122 113 108 107 101 97 92 97 100 85 73 83 81 86 94 89 86 88 82 78 77 78 80 77 82
52 54 59 66 75 84 91 97 105 115 126 127 131 133 136 139 137 130 126 119 111 107 109 104 104 102 100 89 93 84 72 92 85 86 90 89 87 86 87 86 87 87 91
52 55 59 64 69 79 85 86 97 106 119 127 130 131 135 136 140 136 130 126 119 113 113 111 105 108 103 98 94 94 74 72 94 92 86 85 86 87 90 90 87 88 88
54 57 60 64 68 73 80 88 94 103 112 124 130 130 131 134 136 139 134 128 123 118 114 112 113 108 102 95 95 93 83 67 70 86 88 89 86 87 88 90 93 91 90
56 59 62 65 68 72 77 90 96 103 109 120 130 131 130 134 135 137 137 132 126 121 120 113 110 107 110 107 101 96 85 88 77 71 74 78 80 81 82 87 84 84 86
54 57 61 65 69 72 76 86 95 102 107 111 122 129 130 131 136 136 139 137 132 125 118 116 114 112 108 108 106 105 94 87 78 67 70 70 79 81 79 79 80 79 78
50 54 56 60 65 70 75 80 90 97 103 108 114 124 129 130 134 136 138 139 134 131 123 117 115 113 110 110 108 109 103 87 71 68 79 82 79 76 75 75 76 76 78
42 48 52 54 60 64 69 75 82 90 97 105 112 119 127 130 132 134 136 136 135 129 128 121 116 113 114 110 111 108 101 97 91 78 81 80 80 83 77 78 71 74 82
38 42 47 52 55 58 64 69 74 78 83 95 103 109 119 125 126 126 132 133 134 133 127 126 122 119 114 112 108 109 102 100 99 97 97 93 86 76 80 82 79 79 81
35 42 45 47 52 56 60 64 69 72 77 81 89 98 104 115 119 123 129 136 135 135 131 121 118 121 114 112 108 104 107 105 101 99 104 100 97 87 91 91 88 85 74